This is the latest recevied weather packets stored in our database for station/object HP1CDW-10. If no packets are shown the sender has not sent any weather packets the latest 10 day(s).
| Time | Temp. | Humidity | Pressure | Rain* | Wind** | Luminosity | Snow |
|---|---|---|---|---|---|---|---|
| 1788569718 | 36.11° C | 46% | 1001.6 hPa | - | - | - | - |
| 1788569113 | 36.11° C | 46% | 1001.4 hPa | - | - | - | - |
| 1788566694 | 36.11° C | 47% | 1001.1 hPa | - | - | - | - |
| 1788566089 | 36.67° C | 47% | 1001.1 hPa | - | - | - | - |
| 1788565484 | 36.11° C | 48% | 1001 hPa | - | - | - | - |
| 1788564880 | 36.11° C | 48% | 1001 hPa | - | - | - | - |
| 1788564275 | 36.67° C | 48% | 1000.9 hPa | - | - | - | - |
| 1788563670 | 36.11° C | 48% | 1000.7 hPa | - | - | - | - |
| 1788563065 | 36.11° C | 47% | 1000.6 hPa | - | - | - | - |
| 1788562460 | 36.11° C | 48% | 1000.5 hPa | - | - | - | - |
| 1788561856 | 36.11° C | 49% | 1000.5 hPa | - | - | - | - |
| 1788561251 | 35.56° C | 50% | 1000.4 hPa | - | - | - | - |
| 1788560646 | 36.67° C | 47% | 1000 hPa | - | - | - | - |
| 1788560041 | 35.56° C | 50% | 1000 hPa | - | - | - | - |
| 1788559437 | 36.67° C | 46% | 1000 hPa | - | - | - | - |
| 1788558832 | 36.67° C | 45% | 1000 hPa | - | - | - | - |
| 1788558227 | 36.67° C | 46% | 1000 hPa | - | - | - | - |
| 1788557622 | 36.11° C | 48% | 1000.1 hPa | - | - | - | - |
| 1788557017 | 36.67° C | 46% | 1000.2 hPa | - | - | - | - |
| 1788556413 | 36.11° C | 46% | 1000.5 hPa | - | - | - | - |
| 1788555808 | 36.11° C | 48% | 1000.8 hPa | - | - | - | - |
| 1788555203 | 36.67° C | 49% | 1001 hPa | - | - | - | - |
| 1788554598 | 36.11° C | 49% | 1001.2 hPa | - | - | - | - |
| 1788553994 | 36.11° C | 49% | 1000.9 hPa | - | - | - | - |
| 1788553389 | 34.44° C | 55% | 1001.1 hPa | - | - | - | - |
* Rain since midnight (hover to see other rain measurements)
** Current wind speed in m/s (hover to see current wind gust speed)